GW2011 Weather Reports


Display with metric or nautical units.
time (UTC)temp
F
wind
direction
speed
MPH
gust
MPH
rain 1hr
in
rain 24hr
in
rain mn
in
humidity
%
barometer
mb
20260904165522 73 148 0.0 3.0 0.00 0.00 0.00 90 1010.8
20260904165019 73 0 1.0 3.0 0.00 0.00 0.00 90 1010.7
20260904164545 72 0 0.0 0.0 0.00 0.00 0.00 90 1010.4
20260904164018 72 0 0.0 1.0 0.00 0.00 0.00 91 1010.5
20260904163517 72 0 0.0 2.0 0.00 0.00 0.00 92 1010.3
20260904163037 72 0 0.0 2.0 0.00 0.00 0.00 92 1010.4
20260904162520 71 0 0.0 2.0 0.00 0.00 0.00 93 1010.4
20260904162020 71 0 0.0 2.0 0.00 0.00 0.00 93 1010.4
20260904161538 71 61 0.0 2.0 0.00 0.00 0.00 93 1010.4
20260904161019 71 0 0.0 2.0 0.00 0.00 0.00 94 1010.4
20260904160519 71 0 0.0 2.0 0.00 0.00 0.00 94 1010.2
20260904160040 71 0 0.0 2.0 0.00 0.00 0.00 95 1010.2
20260904155521 70 61 0.0 2.0 0.00 0.00 0.00 95 1010.0
20260904155017 70 61 0.0 2.0 0.00 0.00 0.00 96 1010.1
20260904154547 69 0 0.0 1.0 0.00 0.00 0.00 96 1009.9
20260904154023 69 48 0.0 2.0 0.00 0.00 0.00 95 1009.9
20260904153520 69 48 0.0 2.0 0.00 0.00 0.00 96 1009.9
20260904153038 69 0 0.0 2.0 0.00 0.00 0.00 96 1009.8
20260904152518 69 0 0.0 2.0 0.00 0.00 0.00 96 1009.9
20260904152019 68 0 0.0 2.0 0.00 0.00 0.00 96 1009.8
20260904151538 68 0 0.0 0.0 0.00 0.00 0.00 96 1009.7
20260904151017 68 0 0.0 0.0 0.00 0.00 0.00 96 1009.8
20260904150518 68 0 0.0 0.0 0.00 0.00 0.00 96 1009.7
20260904150035 68 0 0.0 0.0 0.00 0.00 0.00 96 1009.5
20260904145520 68 0 0.0 0.0 0.00 0.00 0.00 96 1009.5
20260904145020 68 0 0.0 0.0 0.00 0.00 0.00 96 1009.5
20260904144539 67 0 0.0 0.0 0.00 0.00 0.00 96 1009.5
20260904144022 67 0 0.0 0.0 0.00 0.00 0.00 95 1009.5
20260904143520 67 0 0.0 0.0 0.00 0.00 0.00 96 1009.5
20260904143038 67 0 0.0 0.0 0.00 0.00 0.00 96 1009.4
20260904142520 67 0 0.0 0.0 0.00 0.00 0.00 95 1009.2
20260904142023 67 0 0.0 0.0 0.00 0.00 0.00 95 1009.3
20260904141542 67 0 0.0 0.0 0.00 0.00 0.00 95 1009.2
20260904141017 68 0 0.0 0.0 0.00 0.00 0.00 95 1009.3
20260904140519 68 0 0.0 0.0 0.00 0.00 0.00 95 1009.1
20260904140045 68 0 0.0 0.0 0.00 0.00 0.00 95 1009.1
20260904135518 68 0 0.0 0.0 0.00 0.00 0.00 95 1008.9
20260904135020 68 0 0.0 0.0 0.00 0.00 0.00 95 1009.0
20260904134546 68 0 0.0 0.0 0.00 0.00 0.00 95 1008.9
20260904134017 68 0 0.0 0.0 0.00 0.00 0.00 95 1008.8
20260904133522 68 0 0.0 0.0 0.00 0.00 0.00 95 1008.8
20260904133042 68 0 0.0 0.0 0.00 0.00 0.00 95 1008.8
20260904132520 68 0 0.0 0.0 0.00 0.00 0.00 95 1008.6
20260904132018 68 0 0.0 0.0 0.00 0.00 0.00 95 1008.5
20260904131541 68 0 0.0 0.0 0.00 0.00 0.00 95 1008.6
20260904131017 68 0 0.0 0.0 0.00 0.00 0.00 95 1008.7
20260904130519 68 0 0.0 0.0 0.00 0.00 0.00 95 1008.4
20260904130038 68 0 0.0 0.0 0.00 0.00 0.00 95 1008.4
20260904125518 68 0 0.0 0.0 0.00 0.00 0.00 95 1008.4
20260904125019 68 0 0.0 0.0 0.00 0.00 0.00 95 1008.4
20260904124538 68 0 0.0 0.0 0.00 0.00 0.00 95 1008.5
20260904124020 68 0 0.0 0.0 0.00 0.00 0.00 95 1008.3
20260904123519 68 0 0.0 0.0 0.00 0.00 0.00 95 1008.3
20260904123037 68 0 0.0 0.0 0.00 0.00 0.00 94 1008.2
20260904122523 68 0 0.0 0.0 0.00 0.00 0.00 94 1008.2
20260904122020 68 0 0.0 0.0 0.00 0.00 0.00 94 1008.0
20260904121541 68 0 0.0 0.0 0.00 0.00 0.00 94 1008.0
20260904121019 68 0 0.0 0.0 0.00 0.00 0.00 94 1008.0
20260904120521 68 0 0.0 0.0 0.00 0.00 0.00 94 1007.9
20260904120046 68 0 0.0 0.0 0.00 0.00 0.00 94 1008.0
20260904115521 69 0 0.0 0.0 0.00 0.00 0.00 94 1007.9
20260904115022 69 0 0.0 0.0 0.00 0.00 0.00 94 1007.7
20260904114540 69 0 0.0 0.0 0.00 0.00 0.00 94 1007.7
20260904114020 69 0 0.0 0.0 0.00 0.00 0.00 94 1007.6
20260904113520 69 0 0.0 0.0 0.00 0.00 0.00 94 1007.5
20260904113043 69 0 0.0 0.0 0.00 0.00 0.00 94 1007.6
20260904112519 69 0 0.0 2.0 0.00 0.00 0.00 94 1007.4
20260904112019 70 0 0.0 2.0 0.00 0.00 0.00 94 1007.6
20260904111541 70 0 0.0 2.0 0.00 0.00 0.00 93 1007.5
20260904111017 70 0 0.0 1.0 0.00 0.00 0.00 94 1007.6
20260904110520 71 0 0.0 1.0 0.00 0.00 0.00 94 1007.6
20260904110039 71 0 0.0 2.0 0.00 0.00 0.00 95 1007.4
20260904105520 71 0 0.0 2.0 0.00 0.00 0.00 94 1007.5
20260904105022 71 0 0.0 2.0 0.00 0.00 0.00 94 1007.3
20260904104549 71 108 0.0 2.0 0.00 0.00 0.00 94 1007.3
20260904104023 71 91 0.0 2.0 0.00 0.00 0.00 94 1007.3
20260904103519 71 0 0.0 2.0 0.00 0.00 0.00 94 1007.2
20260904103037 71 0 0.0 2.0 0.00 0.00 0.00 94 1007.2
20260904102518 71 93 0.0 2.0 0.00 0.00 0.00 94 1007.2
20260904102017 71 93 0.0 1.0 0.00 0.00 0.00 94 1007.0
20260904101540 71 0 0.0 1.0 0.00 0.00 0.00 94 1007.3
20260904101017 71 0 0.0 1.0 0.00 0.00 0.00 94 1007.0
20260904100517 71 93 0.0 1.0 0.00 0.00 0.00 94 1007.0
20260904100039 71 0 0.0 2.0 0.00 0.00 0.00 94 1007.0
20260904095523 71 0 0.0 2.0 0.00 0.00 0.00 94 1007.3
20260904095019 71 93 0.0 2.0 0.00 0.00 0.00 94 1007.1
20260904094539 71 0 0.0 1.0 0.00 0.00 0.00 94 1007.1
20260904094020 71 0 0.0 1.0 0.00 0.00 0.00 94 1007.0
20260904093518 72 0 0.0 1.0 0.00 0.00 0.00 94 1007.1
20260904093045 72 0 0.0 1.0 0.00 0.00 0.00 94 1007.0
20260904092519 72 0 0.0 1.0 0.00 0.00 0.00 94 1007.0
20260904092020 72 0 0.0 2.0 0.00 0.00 0.00 94 1006.9
20260904091537 72 90 0.0 2.0 0.00 0.00 0.00 94 1007.0
20260904091022 72 92 0.0 1.0 0.00 0.00 0.00 94 1006.5
20260904090520 72 0 0.0 1.0 0.00 0.00 0.00 94 1006.9
20260904090036 72 0 0.0 2.0 0.00 0.00 0.00 94 1006.8
20260904085518 71 0 0.0 3.0 0.00 0.00 0.00 95 1006.6
20260904085020 71 92 0.0 3.0 0.00 0.00 0.00 94 1006.4
20260904084544 71 29 0.0 2.0 0.00 0.00 0.00 93 1006.5
20260904084018 71 0 0.0 0.0 0.00 0.00 0.00 94 1006.0
20260904083519 71 0 0.0 0.0 0.00 0.00 0.00 94 1006.1
20260904083039 71 0 0.0 0.0 0.00 0.00 0.00 93 1006.0
20260904082518 71 0 0.0 0.0 0.00 0.00 0.00 93 1005.9
20260904082021 71 0 0.0 0.0 0.00 0.00 0.00 93 1005.8
20260904081539 71 0 0.0 0.0 0.00 0.00 0.00 93 1005.7
20260904081018 71 0 0.0 1.0 0.00 0.00 0.00 93 1005.7
20260904080520 72 0 0.0 1.0 0.00 0.00 0.00 93 1005.7
20260904080038 72 0 0.0 1.0 0.00 0.00 0.00 93 1005.8
20260904075518 72 0 0.0 0.0 0.00 0.00 0.00 93 1005.7
20260904075017 72 0 0.0 0.0 0.00 0.00 0.00 93 1005.9
20260904074544 72 0 0.0 0.0 0.00 0.00 0.00 93 1005.9
20260904074019 72 0 0.0 0.0 0.00 0.00 0.00 93 1005.8
20260904073518 72 0 0.0 0.0 0.00 0.00 0.00 93 1006.1
20260904073037 72 0 0.0 0.0 0.00 0.00 0.00 93 1005.8
20260904072517 72 0 0.0 0.0 0.00 0.00 0.00 93 1005.9
20260904072020 72 0 0.0 0.0 0.00 0.00 0.00 93 1005.8
20260904071544 72 0 0.0 0.0 0.00 0.00 0.00 92 1005.8
20260904071020 72 0 0.0 0.0 0.00 0.00 0.00 92 1005.9
20260904070520 72 0 0.0 0.0 0.00 0.00 0.00 92 1005.9
20260904070041 72 0 0.0 0.0 0.00 0.00 0.00 92 1006.0
20260904065517 72 0 0.0 0.0 0.00 0.00 0.00 93 1006.0
20260904065017 72 0 0.0 0.0 0.00 0.00 0.00 92 1006.0
20260904064538 72 0 0.0 0.0 0.00 0.00 0.00 92 1006.0
20260904064021 72 0 0.0 0.0 0.00 0.00 0.00 92 1006.0
20260904063521 72 0 0.0 0.0 0.00 0.00 0.00 92 1006.0
20260904063038 73 0 0.0 0.0 0.00 0.00 0.00 92 1005.9
20260904062519 73 0 0.0 0.0 0.00 0.00 0.00 91 1005.8
20260904062019 73 0 0.0 0.0 0.00 0.00 0.00 91 1005.9
20260904061541 73 0 0.0 0.0 0.00 0.00 0.00 91 1005.9
20260904061017 73 0 0.0 0.0 0.00 0.00 0.00 91 1005.8
20260904060518 73 0 0.0 0.0 0.00 0.00 0.00 90 1005.7
20260904060038 73 0 0.0 0.0 0.00 0.00 0.00 90 1005.8
20260904055518 74 0 0.0 1.0 0.00 0.00 0.00 90 1005.8
20260904055020 74 0 0.0 1.0 0.00 0.00 0.00 89 1005.9
20260904054542 74 0 0.0 1.0 0.00 0.00 0.00 88 1005.7
20260904054023 75 0 0.0 3.0 0.00 0.00 0.00 90 1005.6
20260904053518 75 0 1.0 3.0 0.00 0.00 0.00 89 1005.8
20260904053040 75 0 0.0 2.0 0.00 0.00 0.00 89 1005.7
20260904052517 75 0 0.0 2.0 0.00 0.00 0.00 89 1005.7
20260904052022 75 0 0.0 2.0 0.00 0.00 0.00 88 1005.7
20260904051541 75 0 0.0 2.0 0.00 0.00 0.00 88 1005.7
20260904051019 75 0 0.0 2.0 0.00 0.00 0.00 89 1005.6
20260904050519 75 0 0.0 2.0 0.00 0.00 0.00 89 1005.7
20260904050043 76 198 0.0 3.0 0.00 0.00 0.00 88 1005.7
20260904045519 76 0 1.0 3.0 0.00 0.00 0.00 88 1005.6
20260904045019 76 207 1.0 3.0 0.00 0.00 0.00 88 1005.7
20260904044536 76 189 0.0 3.0 0.00 0.00 0.00 88 1005.5
20260904044019 76 0 0.0 3.0 0.00 0.00 0.00 88 1005.5
20260904043520 76 224 1.0 4.0 0.00 0.00 0.00 88 1005.5
20260904043041 76 173 0.0 5.0 0.00 0.00 0.00 87 1005.6
20260904042518 76 164 0.0 5.0 0.00 0.00 0.00 87 1005.4
20260904042017 76 171 1.0 4.0 0.00 0.00 0.00 87 1005.6
20260904041537 76 222 1.0 3.0 0.00 0.00 0.00 87 1005.5
20260904041019 76 194 0.0 4.0 0.00 0.00 0.00 87 1005.7
20260904040520 76 0 1.0 4.0 0.00 0.00 0.00 86 1005.7
20260904040040 77 192 1.0 4.0 0.00 0.00 0.00 86 1005.5
20260904035518 77 185 2.0 4.0 0.00 0.00 0.00 86 1005.5
20260904035017 77 183 2.0 4.0 0.00 0.00 0.00 86 1005.4
20260904034537 77 190 1.0 4.0 0.00 0.00 0.00 86 1005.4
20260904034019 77 189 0.0 3.0 0.00 0.00 0.00 85 1005.6
20260904033520 77 143 1.0 4.0 0.00 0.00 0.00 85 1005.4
20260904033038 77 143 1.0 4.0 0.00 0.00 0.00 85 1005.5
20260904032518 77 125 1.0 4.0 0.00 0.00 0.00 84 1005.5
20260904032018 78 182 1.0 6.0 0.00 0.00 0.00 84 1005.5
20260904031536 78 152 2.0 6.0 0.00 0.00 0.00 84 1005.5
20260904031020 78 141 2.0 4.0 0.00 0.00 0.00 83 1005.7
20260904030522 78 126 0.0 4.0 0.00 0.00 0.00 83 1005.6
20260904030042 78 117 0.0 4.0 0.00 0.00 0.00 83 1005.6
20260904025517 78 113 1.0 4.0 0.00 0.00 0.00 83 1005.5
20260904025017 78 144 1.0 4.0 0.00 0.00 0.00 83 1005.6
20260904024538 78 240 1.0 5.0 0.00 0.00 0.00 83 1005.4
20260904024018 78 169 1.0 6.0 0.00 0.00 0.00 83 1005.5
20260904023519 78 176 3.0 7.0 0.00 0.00 0.00 82 1005.2
20260904023036 79 142 2.0 7.0 0.00 0.00 0.00 82 1005.3
20260904022520 79 128 3.0 8.0 0.00 0.00 0.00 82 1005.3
20260904022021 79 152 3.0 8.0 0.00 0.00 0.00 81 1005.3
20260904021549 79 141 3.0 5.0 0.00 0.00 0.00 81 1005.3
20260904021018 79 162 2.0 5.0 0.00 0.00 0.00 81 1005.2
20260904020518 80 126 1.0 4.0 0.00 0.00 0.00 81 1005.4
20260904020040 80 134 0.0 3.0 0.00 0.00 0.00 80 1005.4
20260904015519 80 0 0.0 3.0 0.00 0.00 0.00 81 1005.2
20260904015022 80 0 0.0 3.0 0.00 0.00 0.00 81 1005.2
20260904014541 80 0 0.0 5.0 0.00 0.00 0.00 80 1005.1
20260904014017 80 0 1.0 6.0 0.00 0.00 0.00 79 1005.0
20260904013520 81 140 1.0 6.0 0.00 0.00 0.00 79 1004.9
20260904013041 81 107 2.0 5.0 0.00 0.00 0.00 79 1004.7
20260904012521 81 143 2.0 8.0 0.00 0.00 0.00 78 1004.6
20260904012018 81 132 3.0 8.0 0.00 0.00 0.00 78 1004.7
20260904011551 81 123 2.0 7.0 0.00 0.00 0.00 78 1004.6
20260904011020 82 130 2.0 11.0 0.00 0.00 0.00 77 1004.4
20260904010517 82 141 5.0 11.0 0.00 0.00 0.00 77 1004.4
20260904010040 82 129 3.0 8.0 0.00 0.00 0.00 76 1004.4
20260904005523 82 132 3.0 8.0 0.00 0.00 0.00 77 1004.3
20260904005019 83 155 3.0 9.0 0.00 0.00 0.00 76 1004.2
20260904004537 83 142 4.0 9.0 0.00 0.00 0.00 75 1004.2
20260904004022 83 133 4.0 8.0 0.00 0.00 0.00 75 1004.2
20260904003520 83 134 3.0 8.0 0.00 0.00 0.00 75 1004.2
20260904003035 83 120 3.0 6.0 0.00 0.00 0.00 75 1004.1
20260904002520 84 142 3.0 8.0 0.00 0.00 0.00 75 1004.1
20260904002020 84 128 4.0 9.0 0.00 0.00 0.00 75 1004.2
20260904001539 84 133 5.0 9.0 0.00 0.00 0.00 74 1004.3
20260904001020 84 129 3.0 9.0 0.00 0.00 0.00 73 1004.2
20260904000523 84 130 4.0 9.0 0.00 0.00 0.00 74 1004.2
20260904000039 85 134 5.0 12.0 0.00 0.00 0.00 72 1004.0
20260903235523 85 141 6.0 12.0 0.00 0.00 0.00 73 1004.0
20260903235019 85 138 7.0 14.0 0.00 0.00 0.00 72 1004.2
20260903234537 85 135 6.0 14.0 0.00 0.00 0.00 72 1004.3
20260903234021 86 128 8.0 13.0 0.00 0.00 0.00 71 1004.2
20260903233520 86 123 8.0 12.0 0.00 0.00 0.00 70 1004.3
20260903233038 86 148 5.0 12.0 0.00 0.00 0.00 70 1004.2
20260903232521 86 149 7.0 12.0 0.00 0.00 0.00 69 1004.2
20260903232018 87 151 4.0 9.0 0.00 0.00 0.00 68 1004.3
20260903231539 86 155 4.0 10.0 0.00 0.00 0.00 67 1004.2
20260903231021 87 170 4.0 10.0 0.00 0.00 0.00 67 1004.1
20260903230518 87 161 6.0 11.0 0.00 0.00 0.00 68 1003.9
20260903230039 87 137 5.0 12.0 0.00 0.00 0.00 67 1004.0
20260903225524 87 123 8.0 12.0 0.00 0.00 0.00 66 1003.9
20260903225018 87 168 4.0 9.0 0.00 0.00 0.00 67 1003.9
20260903224539 87 186 5.0 13.0 0.00 0.00 0.00 67 1003.8
20260903224019 87 227 6.0 13.0 0.00 0.00 0.00 66 1003.7
20260903223520 87 136 7.0 12.0 0.00 0.00 0.00 66 1003.7
20260903223042 87 155 6.0 11.0 0.00 0.00 0.00 66 1003.6
20260903222520 86 127 6.0 13.0 0.00 0.00 0.00 66 1003.4
20260903222018 86 150 8.0 13.0 0.00 0.00 0.00 66 1003.6
20260903221535 86 178 5.0 12.0 0.00 0.00 0.00 67 1003.4
20260903221018 86 139 7.0 14.0 0.00 0.00 0.00 68 1003.4
20260903220520 86 161 8.0 14.0 0.00 0.00 0.00 66 1003.5
20260903220057 86 146 8.0 14.0 0.00 0.00 0.00 67 1003.5
20260903215518 86 138 7.0 16.0 0.00 0.00 0.00 67 1003.6
20260903215020 86 160 8.0 16.0 0.00 0.00 0.00 67 1003.6
20260903214539 86 152 6.0 13.0 0.00 0.00 0.00 69 1003.6
20260903214017 86 194 5.0 15.0 0.00 0.00 0.00 69 1003.7
20260903213520 85 167 9.0 15.0 0.00 0.00 0.00 69 1003.7
20260903213043 85 161 8.0 14.0 0.00 0.00 0.00 68 1003.7
20260903212520 85 182 6.0 13.0 0.00 0.00 0.00 69 1003.9
20260903212019 85 161 8.0 16.0 0.00 0.00 0.00 69 1004.0
20260903211538 85 137 9.0 16.0 0.00 0.00 0.00 69 1003.9
20260903211020 85 151 9.0 16.0 0.00 0.00 0.00 69 1003.9
20260903210518 85 184 7.0 15.0 0.00 0.00 0.00 68 1004.0
20260903210048 85 129 7.0 15.0 0.00 0.00 0.00 69 1004.0
20260903205519 85 160 8.0 15.0 0.00 0.00 0.00 69 1003.9
20260903205017 85 180 6.0 19.0 0.00 0.00 0.00 68 1004.0
20260903204537 84 143 11.0 19.0 0.00 0.00 0.00 71 1004.0
20260903204019 84 176 8.0 14.0 0.00 0.00 0.00 72 1003.9
20260903203518 84 134 7.0 14.0 0.00 0.00 0.00 72 1003.9
20260903203036 83 121 7.0 15.0 0.00 0.00 0.00 72 1003.9
20260903202520 83 167 9.0 15.0 0.00 0.00 0.00 73 1003.9
20260903202019 83 138 6.0 13.0 0.00 0.00 0.00 73 1004.1
20260903201535 83 129 7.0 13.0 0.00 0.00 0.00 73 1004.2
20260903201019 83 135 6.0 12.0 0.00 0.00 0.00 74 1004.2
20260903200520 83 138 8.0 14.0 0.00 0.00 0.00 74 1004.1
20260903200037 82 170 4.0 14.0 0.00 0.00 0.00 75 1004.0
20260903195517 82 143 1.0 10.0 0.00 0.00 0.00 75 1004.0
20260903195018 83 143 4.0 10.0 0.00 0.00 0.00 75 1004.0
20260903194546 83 138 2.0 9.0 0.00 0.00 0.00 74 1004.0
20260903194023 83 126 2.0 9.0 0.00 0.00 0.00 74 1004.0
20260903193521 82 118 5.0 10.0 0.00 0.00 0.00 75 1004.1
20260903193050 82 130 4.0 12.0 0.00 0.00 0.00 74 1004.2
20260903192519 82 120 6.0 14.0 0.00 0.00 0.00 74 1004.3
20260903192021 82 132 8.0 14.0 0.00 0.00 0.00 73 1004.4
20260903191535 82 129 7.0 12.0 0.00 0.00 0.00 73 1004.5
20260903191019 82 148 7.0 12.0 0.00 0.00 0.00 73 1004.7
20260903190518 82 119 7.0 13.0 0.00 0.00 0.00 73 1004.7
20260903190044 82 130 7.0 13.0 0.00 0.00 0.00 73 1004.3
20260903185522 82 126 8.0 14.0 0.00 0.00 0.00 73 1004.9
20260903185019 82 142 6.0 14.0 0.00 0.00 0.00 73 1004.9
20260903184537 82 159 7.0 12.0 0.00 0.00 0.00 72 1005.0
20260903184018 82 129 6.0 11.0 0.00 0.00 0.00 74 1005.1
20260903183518 82 167 6.0 12.0 0.00 0.00 0.00 73 1005.1
20260903183038 82 142 7.0 12.0 0.00 0.00 0.00 73 1005.2
20260903182519 82 194 5.0 13.0 0.00 0.00 0.00 72 1005.2
20260903182020 82 167 7.0 13.0 0.00 0.00 0.00 71 1005.3
20260903181538 82 208 7.0 14.0 0.00 0.00 0.00 72 1005.3
20260903181020 82 191 8.0 15.0 0.00 0.00 0.00 71 1005.4
20260903180518 82 165 9.0 16.0 0.00 0.00 0.00 70 1005.3
20260903180040 83 149 11.0 16.0 0.00 0.00 0.00 70 1005.4
20260903175517 82 199 7.0 15.0 0.00 0.00 0.00 71 1005.5
20260903175017 82 172 9.0 17.0 0.00 0.00 0.00 72 1005.8
20260903174539 82 172 10.0 17.0 0.00 0.00 0.00 70 1005.8
20260903174021 82 186 9.0 19.0 0.00 0.00 0.00 70 1005.8
20260903173520 82 192 11.0 19.0 0.00 0.00 0.00 70 1005.7
20260903173039 82 167 8.0 20.0 0.00 0.00 0.00 70 1006.0
20260903172520 82 202 9.0 20.0 0.00 0.00 0.00 70 1006.0
20260903172022 82 157 9.0 19.0 0.00 0.00 0.00 69 1005.9
20260903171539 82 178 9.0 19.0 0.00 0.00 0.00 70 1005.8
20260903171019 82 135 9.0 16.0 0.00 0.00 0.00 69 1005.8
20260903170523 82 162 8.0 16.0 0.00 0.00 0.00 70 1005.7
20260903170052 82 179 11.0 19.0 0.00 0.00 0.00 69 1005.7